• în Republica Moldova
  • Lista ţărilor
  • Pe 7 zile
  • Temperatura apei
  • Hartă satelitară
  • Meteo pe hartă
  • Widget-uri
  • user-avatar
    Intrare

    Meteo pe oră la Grabowszczyzna

    Astăzi, 16 Noiembrie, Vineri

    Timp Temperatura Precipitaţii Vânt Presiune Umiditate
    00:00 +1°C° 0 mm 4 m/s 762 mmHg 77%
    01:00 +2°C° 0 mm 3 m/s 762 mmHg 78%
    02:00 +2°C° 0 mm 3 m/s 763 mmHg 80%
    03:00 +2°C° 0 mm 3 m/s 763 mmHg 82%
    04:00 +2°C° 0 mm 3 m/s 763 mmHg 84%
    05:00 +1°C° 0 mm 3 m/s 764 mmHg 85%
    06:00 +1°C° 0 mm 3 m/s 764 mmHg 87%
    07:00 +1°C° 0 mm 3 m/s 764 mmHg 90%
    08:00 +1°C° 0 mm 3 m/s 764 mmHg 92%
    09:00 +1°C° 0 mm 3 m/s 765 mmHg 88%
    10:00 +2°C° 0 mm 3 m/s 765 mmHg 83%
    11:00 +3°C° 0 mm 3 m/s 765 mmHg 79%
    12:00 +3°C° 0 mm 3 m/s 765 mmHg 78%
    13:00 +3°C° 0 mm 3 m/s 765 mmHg 76%
    14:00 +3°C° 0 mm 3 m/s 765 mmHg 75%
    15:00 +3°C° 0 mm 3 m/s 765 mmHg 77%
    16:00 +2°C° 0 mm 3 m/s 765 mmHg 79%
    17:00 +2°C° 0 mm 3 m/s 766 mmHg 81%
    18:00 +1°C° 0 mm 3 m/s 766 mmHg 81%
    19:00 +1°C° 0 mm 3 m/s 766 mmHg 81%
    20:00 +1°C° 0 mm 3 m/s 766 mmHg 82%
    21:00 0°C° 0 mm 3 m/s 766 mmHg 80%
    22:00 0°C° 0 mm 3 m/s 766 mmHg 78%
    23:00 0°C° 0 mm 3 m/s 766 mmHg 76%

    Mâine, 17 Noiembrie, Sâmbătă

    Timp Temperatura Precipitaţii Vânt Presiune Umiditate
    00:00 -1°C° 0 mm 3 m/s 766 mmHg 74%
    01:00 -1°C° 0 mm 3 m/s 766 mmHg 72%
    02:00 -2°C° 0 mm 3 m/s 766 mmHg 71%
    03:00 -2°C° 0 mm 3 m/s 766 mmHg 69%
    04:00 -2°C° 0 mm 3 m/s 766 mmHg 67%
    05:00 -2°C° 0 mm 2 m/s 766 mmHg 66%
    06:00 -2°C° 0 mm 2 m/s 766 mmHg 64%
    07:00 -2°C° 0 mm 2 m/s 766 mmHg 63%
    08:00 -2°C° 0 mm 2 m/s 766 mmHg 61%
    09:00 -1°C° 0 mm 3 m/s 766 mmHg 56%
    10:00 0°C° 0 mm 3 m/s 766 mmHg 51%
    11:00 +1°C° 0 mm 3 m/s 766 mmHg 45%
    12:00 +1°C° 0 mm 3 m/s 766 mmHg 43%
    13:00 +2°C° 0 mm 3 m/s 765 mmHg 41%
    14:00 +3°C° 0 mm 3 m/s 765 mmHg 39%
    15:00 +3°C° 0 mm 2 m/s 765 mmHg 43%
    16:00 +2°C° 0 mm 2 m/s 764 mmHg 47%
    17:00 +1°C° 0 mm 2 m/s 764 mmHg 51%
    18:00 +1°C° 0 mm 2 m/s 764 mmHg 51%
    19:00 -1°C° 0 mm 2 m/s 764 mmHg 51%
    20:00 -1°C° 0 mm 2 m/s 763 mmHg 51%
    21:00 +1°C° 0 mm 1 m/s 763 mmHg 51%
    22:00 +1°C° 0 mm 1 m/s 763 mmHg 50%
    23:00 0°C° 0 mm 0 m/s 763 mmHg 49%

    Poimâine, 18 Noiembrie, Duminică

    Timp Temperatura Precipitaţii Vânt Presiune Umiditate
    00:00 +1°C° 0 mm 1 m/s 762 mmHg 49%
    01:00 +1°C° 0 mm 1 m/s 762 mmHg 48%
    02:00 +1°C° 0 mm 1 m/s 761 mmHg 48%
    03:00 +1°C° 0 mm 1 m/s 761 mmHg 48%
    04:00 -2°C° 0 mm 2 m/s 760 mmHg 48%
    05:00 -2°C° 0 mm 2 m/s 759 mmHg 48%
    06:00 -2°C° 0 mm 2 m/s 759 mmHg 48%
    07:00 -2°C° 0 mm 2 m/s 758 mmHg 49%
    08:00 -2°C° 0 mm 2 m/s 758 mmHg 49%
    09:00 -1°C° 0 mm 3 m/s 757 mmHg 51%
    10:00 0°C° 0 mm 3 m/s 757 mmHg 52%
    11:00 +1°C° 0 mm 3 m/s 756 mmHg 53%
    12:00 +1°C° 0.1 mm 3 m/s 756 mmHg 61%
    13:00 +1°C° 0.1 mm 3 m/s 755 mmHg 69%
    14:00 +1°C° 0.1 mm 3 m/s 755 mmHg 77%
    15:00 +1°C° 0.1 mm 3 m/s 754 mmHg 82%
    16:00 +1°C° 0.1 mm 3 m/s 754 mmHg 87%
    17:00 +1°C° 0.1 mm 3 m/s 753 mmHg 92%
    18:00 +1°C° 0.1 mm 3 m/s 753 mmHg 94%
    19:00 +1°C° 0.1 mm 3 m/s 753 mmHg 95%
    20:00 +2°C° 0.1 mm 2 m/s 752 mmHg 96%
    21:00 +2°C° 0.2 mm 2 m/s 752 mmHg 96%
    22:00 +2°C° 0.2 mm 2 m/s 752 mmHg 96%
    23:00 +2°C° 0.2 mm 2 m/s 752 mmHg 96%

    19 Noiembrie, Luni

    Timp Temperatura Precipitaţii Vânt Presiune Umiditate
    00:00 +2°C° 0.3 mm 2 m/s 751 mmHg 95%
    01:00 +1°C° 0.3 mm 3 m/s 751 mmHg 95%
    02:00 +1°C° 0.3 mm 3 m/s 751 mmHg 95%
    03:00 +1°C° 0.3 mm 3 m/s 751 mmHg 93%
    04:00 0°C° 0.3 mm 4 m/s 750 mmHg 92%
    05:00 0°C° 0.3 mm 4 m/s 750 mmHg 91%
    06:00 0°C° 0.1 mm 4 m/s 750 mmHg 91%
    07:00 -1°C° 0.1 mm 4 m/s 750 mmHg 91%
    08:00 -1°C° 0.1 mm 4 m/s 750 mmHg 91%
    09:00 0°C° 0.1 mm 4 m/s 750 mmHg 89%
    10:00 0°C° 0.1 mm 4 m/s 750 mmHg 88%
    11:00 0°C° 0.1 mm 4 m/s 751 mmHg 87%
    12:00 +1°C° 0.1 mm 4 m/s 751 mmHg 86%
    13:00 +1°C° 0.1 mm 4 m/s 750 mmHg 85%
    14:00 +1°C° 0.1 mm 4 m/s 750 mmHg 84%
    15:00 +1°C° 0.1 mm 4 m/s 750 mmHg 85%
    16:00 +1°C° 0.1 mm 4 m/s 750 mmHg 87%
    17:00 +1°C° 0.1 mm 3 m/s 750 mmHg 89%
    18:00 +1°C° 0.1 mm 3 m/s 750 mmHg 90%
    19:00 0°C° 0.1 mm 4 m/s 750 mmHg 90%
    20:00 0°C° 0.1 mm 4 m/s 750 mmHg 90%
    21:00 0°C° 0 mm 4 m/s 751 mmHg 90%
    22:00 0°C° 0 mm 3 m/s 751 mmHg 89%
    23:00 0°C° 0 mm 3 m/s 751 mmHg 88%

    20 Noiembrie, Marţi

    Timp Temperatura Precipitaţii Vânt Presiune Umiditate
    00:00 0°C° 0 mm 3 m/s 751 mmHg 89%
    01:00 -1°C° 0 mm 4 m/s 751 mmHg 89%
    02:00 -2°C° 0 mm 4 m/s 751 mmHg 90%
    03:00 -2°C° 0.1 mm 4 m/s 751 mmHg 89%
    04:00 -2°C° 0.1 mm 4 m/s 751 mmHg 88%
    05:00 -2°C° 0.1 mm 4 m/s 751 mmHg 87%
    06:00 -2°C° 0 mm 4 m/s 751 mmHg 87%
    07:00 -3°C° 0 mm 4 m/s 751 mmHg 87%
    08:00 -3°C° 0 mm 4 m/s 750 mmHg 87%
    09:00 -4°C° 0.1 mm 5 m/s 751 mmHg 84%
    10:00 -2°C° 0.1 mm 5 m/s 751 mmHg 82%
    11:00 -2°C° 0.1 mm 5 m/s 751 mmHg 79%
    12:00 -2°C° 0.1 mm 5 m/s 751 mmHg 79%
    13:00 -2°C° 0.1 mm 5 m/s 751 mmHg 79%
    14:00 -1°C° 0.1 mm 4 m/s 750 mmHg 79%
    15:00 -2°C° 0 mm 4 m/s 750 mmHg 81%
    16:00 -2°C° 0 mm 4 m/s 750 mmHg 83%
    17:00 -2°C° 0 mm 4 m/s 750 mmHg 85%
    18:00 -2°C° 0 mm 4 m/s 750 mmHg 86%
    19:00 -2°C° 0 mm 4 m/s 750 mmHg 87%
    20:00 -2°C° 0 mm 4 m/s 750 mmHg 88%
    21:00 -2°C° 0 mm 4 m/s 750 mmHg 89%
    22:00 -2°C° 0 mm 4 m/s 750 mmHg 90%
    23:00 -1°C° 0 mm 4 m/s 750 mmHg 90%

    21 Noiembrie, Miercuri

    Timp Temperatura Precipitaţii Vânt Presiune Umiditate
    00:00 -1°C° 0 mm 5 m/s 749 mmHg 90%
    01:00 -1°C° 0 mm 5 m/s 749 mmHg 90%
    02:00 -1°C° 0 mm 5 m/s 748 mmHg 90%
    03:00 -2°C° 0 mm 6 m/s 748 mmHg 89%
    04:00 -2°C° 0 mm 7 m/s 747 mmHg 88%
    05:00 -2°C° 0 mm 7 m/s 747 mmHg 87%
    06:00 -2°C° 0.1 mm 7 m/s 746 mmHg 86%
    07:00 -2°C° 0.1 mm 8 m/s 746 mmHg 85%
    08:00 -2°C° 0.1 mm 8 m/s 745 mmHg 84%
    09:00 -2°C° 0.3 mm 8 m/s 745 mmHg 84%
    10:00 -1°C° 0.3 mm 9 m/s 745 mmHg 84%
    11:00 -1°C° 0.3 mm 9 m/s 745 mmHg 83%
    12:00 -1°C° 0.6 mm 9 m/s 744 mmHg 84%
    13:00 -1°C° 0.6 mm 9 m/s 744 mmHg 85%
    14:00 -3°C° 0.6 mm 9 m/s 744 mmHg 86%
    15:00 -3°C° 0.7 mm 9 m/s 743 mmHg 87%
    16:00 -3°C° 0.7 mm 9 m/s 743 mmHg 87%
    17:00 -3°C° 0.7 mm 9 m/s 743 mmHg 88%
    18:00 -3°C° 0.8 mm 9 m/s 743 mmHg 88%
    19:00 -3°C° 0.8 mm 9 m/s 743 mmHg 89%
    20:00 -3°C° 0.8 mm 9 m/s 742 mmHg 89%
    21:00 -3°C° 0.9 mm 9 m/s 742 mmHg 89%
    22:00 -3°C° 0.9 mm 9 m/s 743 mmHg 90%
    23:00 -2°C° 0.9 mm 8 m/s 743 mmHg 90%
    Arată mai mult